Location: ?????
(38.2579°N, 22.9711°E)
Time: 14:21:58
(UTC+00:00)

Spot 4 Rocket - Pass Details

Date: 13 December 2025
Orbit: 769 x 773 km, 98.8° (Epoch: 17 January)

Event Time Altitude Azimuth Distance (km) Brightness Sun altitude
Rises 17:03:03 0° 167° (SSE) 3,227 7.2 -21.8°
Reaches altitude 10° 17:05:21 10° 168° (SSE) 2,305 6.5 -22.2°
Maximum altitude 17:10:26 83° 256° (WSW) 782 4.0 -23.2°
Drops below altitude 10° 17:15:34 10° 345° (NNW) 2,324 6.5 -24.2°
Sets 17:17:53 0° 346° (NNW) 3,256 7.3 -24.6°
